| time (UTC) | temp F | wind direction | speed MPH | gust MPH | rain 1hr in | rain 24hr in | rain mn in | humidity % | barometer mb |
| 20260508023002 | 58 | 263 | 6.0 | 9.0 | 0.00 | 0.00 | 0.00 | 15 | 1012.5 |
| 20260508021501 | 60 | 261 | 5.0 | 13.0 | 0.00 | 0.00 | 0.00 | 15 | 1012.3 |
| 20260508020002 | 62 | 241 | 12.0 | 16.0 | 0.00 | 0.00 | 0.00 | 14 | 1012.0 |
| 20260508014602 | 64 | 249 | 12.0 | 20.0 | 0.00 | 0.00 | 0.00 | 13 | 1011.9 |
| 20260508013110 | 65 | 246 | 12.0 | 18.0 | 0.00 | 0.00 | 0.00 | 14 | 1011.8 |
| 20260508011603 | 65 | 38 | 8.0 | 13.0 | 0.00 | 0.00 | 0.00 | 14 | 1011.7 |
| 20260508011502 | 65 | 39 | 8.0 | 13.0 | 0.00 | 0.00 | 0.00 | 14 | 1011.7 |
| 20260508010057 | 66 | 154 | 2.0 | 7.0 | 0.00 | 0.00 | 0.00 | 14 | 1012.1 |
| 20260508004559 | 65 | 45 | 3.0 | 9.0 | 0.00 | 0.00 | 0.00 | 14 | 1012.1 |
| 20260508003103 | 66 | 114 | 8.0 | 12.0 | 0.00 | 0.00 | 0.00 | 14 | 1012.2 |
| 20260508001550 | 65 | 66 | 8.0 | 11.0 | 0.00 | 0.00 | 0.00 | 14 | 1012.6 |
| 20260508000047 | 65 | 130 | 6.0 | 18.0 | 0.00 | 0.00 | 0.00 | 16 | 1012.8 |
| 20260507234546 | 66 | 132 | 4.0 | 10.0 | 0.00 | 0.00 | 0.00 | 16 | 1013.0 |
| 20260507233042 | 66 | 9 | 2.0 | 10.0 | 0.00 | 0.00 | 0.00 | 15 | 1013.3 |
| 20260507231550 | 65 | 201 | 4.0 | 9.0 | 0.00 | 0.00 | 0.00 | 16 | 1013.6 |
| 20260507230040 | 65 | 166 | 5.0 | 13.0 | 0.00 | 0.00 | 0.00 | 15 | 1013.9 |
| 20260507224550 | 64 | 145 | 6.0 | 12.0 | 0.00 | 0.00 | 0.00 | 16 | 1014.2 |
| 20260507223041 | 65 | 207 | 8.0 | 17.0 | 0.00 | 0.00 | 0.00 | 16 | 1014.5 |
| 20260507221537 | 65 | 269 | 8.0 | 13.0 | 0.00 | 0.00 | 0.00 | 17 | 1014.6 |
| 20260507220032 | 64 | 292 | 6.0 | 18.0 | 0.00 | 0.00 | 0.00 | 17 | 1015.0 |
| 20260507214532 | 64 | 235 | 6.0 | 14.0 | 0.00 | 0.09 | 0.00 | 19 | 1015.4 |
| 20260507213030 | 64 | 182 | 9.0 | 14.0 | 0.00 | 0.09 | 0.00 | 18 | 1015.8 |
| 20260507211521 | 63 | 179 | 2.0 | 20.0 | 0.00 | 0.09 | 0.00 | 18 | 1016.2 |
| 20260507210041 | 62 | 132 | 5.0 | 12.0 | 0.00 | 0.09 | 0.00 | 19 | 1016.5 |
| 20260507204514 | 62 | 295 | 5.0 | 9.0 | 0.00 | 0.09 | 0.00 | 19 | 1016.9 |
| 20260507203018 | 61 | 250 | 8.0 | 18.0 | 0.00 | 0.09 | 0.00 | 19 | 1017.2 |
| 20260507201516 | 61 | 224 | 6.0 | 13.0 | 0.00 | 0.09 | 0.00 | 18 | 1017.4 |
| 20260507200020 | 61 | 299 | 7.0 | 17.0 | 0.00 | 0.09 | 0.00 | 19 | 1017.6 |
| 20260507194505 | 60 | 305 | 8.0 | 15.0 | 0.00 | 0.10 | 0.00 | 20 | 1017.9 |
| 20260507193010 | 59 | 161 | 5.0 | 14.0 | 0.00 | 0.10 | 0.00 | 19 | 1018.0 |
| 20260507191508 | 59 | 45 | 3.0 | 13.0 | 0.00 | 0.10 | 0.00 | 17 | 1018.4 |
| 20260507190100 | 58 | 265 | 6.0 | 12.0 | 0.00 | 0.10 | 0.00 | 15 | 1018.6 |
| 20260507184556 | 57 | 159 | 3.0 | 7.0 | 0.00 | 0.10 | 0.00 | 15 | 1018.9 |
| 20260507183101 | 57 | 255 | 8.0 | 11.0 | 0.00 | 0.10 | 0.00 | 16 | 1019.1 |
| 20260507181551 | 56 | 4 | 3.0 | 10.0 | 0.00 | 0.10 | 0.00 | 23 | 1019.7 |
| 20260507180049 | 54 | 216 | 5.0 | 9.0 | 0.00 | 0.10 | 0.00 | 23 | 1019.9 |
| 20260507174545 | 54 | 319 | 1.0 | 7.0 | 0.00 | 0.10 | 0.00 | 30 | 1020.1 |
| 20260507173050 | 52 | 118 | 5.0 | 9.0 | 0.00 | 0.10 | 0.00 | 34 | 1020.4 |
| 20260507171541 | 51 | 171 | 2.0 | 8.0 | 0.00 | 0.10 | 0.00 | 37 | 1020.7 |
| 20260507170037 | 51 | 152 | 2.0 | 7.0 | 0.00 | 0.10 | 0.00 | 40 | 1021.0 |
| 20260507164533 | 48 | 295 | 4.0 | 9.0 | 0.00 | 0.10 | 0.00 | 39 | 1021.3 |
| 20260507163035 | 48 | 119 | 1.0 | 7.0 | 0.00 | 0.10 | 0.00 | 42 | 1021.3 |
| 20260507161525 | 46 | 274 | 3.0 | 4.0 | 0.00 | 0.10 | 0.00 | 43 | 1021.7 |
| 20260507160031 | 45 | 80 | 4.0 | 8.0 | 0.00 | 0.10 | 0.00 | 48 | 1021.9 |
| 20260507154519 | 45 | 165 | 2.0 | 5.0 | 0.00 | 0.10 | 0.00 | 50 | 1022.0 |
| 20260507153020 | 43 | 152 | 3.0 | 8.0 | 0.00 | 0.10 | 0.00 | 51 | 1022.2 |
| 20260507151511 | 42 | 267 | 3.0 | 5.0 | 0.00 | 0.10 | 0.00 | 54 | 1022.5 |
| 20260507150007 | 40 | 276 | 0.0 | 5.0 | 0.00 | 0.10 | 0.00 | 62 | 1022.5 |
| 20260507144502 | 39 | 220 | 4.0 | 6.0 | 0.00 | 0.10 | 0.00 | 66 | 1022.4 |
| 20260507143108 | 38 | 291 | 4.0 | 7.0 | 0.00 | 0.10 | 0.00 | 69 | 1022.6 |
| 20260507141610 | 38 | 292 | 2.0 | 7.0 | 0.00 | 0.10 | 0.00 | 70 | 1022.5 |
| 20260507140059 | 36 | 301 | 1.0 | 5.0 | 0.00 | 0.10 | 0.00 | 70 | 1022.5 |
| 20260507134549 | 36 | 276 | 2.0 | 4.0 | 0.00 | 0.10 | 0.00 | 73 | 1022.4 |
| 20260507133046 | 35 | 258 | 0.0 | 0.0 | 0.00 | 0.10 | 0.00 | 80 | 1022.4 |
| 20260507131537 | 32 | 324 | 1.0 | 4.0 | 0.00 | 0.10 | 0.00 | 80 | 1022.4 |
| 20260507130039 | 30 | 16 | 2.0 | 4.0 | 0.00 | 0.10 | 0.00 | 79 | 1022.4 |
| 20260507124531 | 29 | 30 | 2.0 | 4.0 | 0.00 | 0.10 | 0.00 | 80 | 1022.4 |
| 20260507123039 | 28 | 45 | 4.0 | 5.0 | 0.00 | 0.10 | 0.00 | 81 | 1022.2 |
| 20260507121526 | 29 | 21 | 2.0 | 4.0 | 0.00 | 0.10 | 0.00 | 76 | 1022.1 |
| 20260507120026 | 29 | 354 | 3.0 | 7.0 | 0.00 | 0.10 | 0.00 | 81 | 1022.0 |
| 20260507114524 | 30 | 26 | 5.0 | 6.0 | 0.00 | 0.10 | 0.00 | 72 | 1021.9 |
| 20260507113027 | 30 | 349 | 7.0 | 9.0 | 0.00 | 0.10 | 0.00 | 70 | 1021.8 |
| 20260507111519 | 31 | 341 | 4.0 | 8.0 | 0.00 | 0.10 | 0.00 | 69 | 1021.5 |
| 20260507110017 | 30 | 10 | 5.0 | 8.0 | 0.00 | 0.10 | 0.00 | 75 | 1021.5 |
| 20260507104517 | 30 | 334 | 4.0 | 9.0 | 0.00 | 0.10 | 0.00 | 80 | 1021.5 |
| 20260507103014 | 30 | 4 | 7.0 | 9.0 | 0.00 | 0.10 | 0.00 | 77 | 1021.3 |
| 20260507101516 | 29 | 4 | 8.0 | 10.0 | 0.00 | 0.10 | 0.00 | 80 | 1021.1 |
| 20260507100013 | 29 | 15 | 4.0 | 5.0 | 0.00 | 0.10 | 0.00 | 82 | 1021.0 |
| 20260507094508 | 30 | 16 | 4.0 | 8.0 | 0.00 | 0.10 | 0.00 | 83 | 1021.0 |
| 20260507093011 | 31 | 345 | 4.0 | 6.0 | 0.00 | 0.10 | 0.00 | 84 | 1020.9 |
| 20260507091506 | 30 | 35 | 2.0 | 4.0 | 0.00 | 0.10 | 0.00 | 87 | 1020.9 |
| 20260507090005 | 30 | 22 | 4.0 | 6.0 | 0.00 | 0.10 | 0.00 | 86 | 1020.8 |
| 20260507084501 | 30 | 38 | 3.0 | 4.0 | 0.00 | 0.10 | 0.00 | 85 | 1020.6 |
| 20260507083100 | 31 | 38 | 0.0 | 3.0 | 0.00 | 0.10 | 0.00 | 85 | 1020.6 |
| 20260507081559 | 31 | 38 | 0.0 | 4.0 | 0.00 | 0.10 | 0.00 | 86 | 1020.6 |
| 20260507080057 | 32 | 38 | 1.0 | 3.0 | 0.00 | 0.10 | 0.00 | 85 | 1020.4 |
| 20260507074558 | 31 | 58 | 2.0 | 5.0 | 0.00 | 0.10 | 0.00 | 85 | 1020.3 |
| 20260507073053 | 32 | 52 | 3.0 | 5.0 | 0.00 | 0.10 | 0.00 | 83 | 1020.3 |
| 20260507071554 | 32 | 4 | 3.0 | 5.0 | 0.00 | 0.10 | 0.00 | 82 | 1020.1 |
| 20260507070054 | 33 | 4 | 3.0 | 4.0 | 0.00 | 0.10 | 0.00 | 82 | 1019.7 |
| 20260507064605 | 32 | 4 | 4.0 | 6.0 | 0.00 | 0.10 | 0.00 | 81 | 1019.7 |
| 20260507063052 | 31 | 31 | 5.0 | 9.0 | 0.00 | 0.10 | 0.00 | 82 | 1019.6 |
| 20260507061544 | 34 | 25 | 4.0 | 8.0 | 0.00 | 0.10 | 0.00 | 76 | 1019.4 |
| 20260507060042 | 33 | 29 | 5.0 | 8.0 | 0.00 | 0.10 | 0.00 | 79 | 1019.3 |
| 20260507054540 | 33 | 38 | 4.0 | 8.0 | 0.00 | 0.10 | 0.09 | 80 | 1019.0 |
| 20260507053037 | 35 | 35 | 4.0 | 6.0 | 0.00 | 0.10 | 0.09 | 76 | 1018.9 |
| 20260507051532 | 35 | 4 | 4.0 | 7.0 | 0.00 | 0.10 | 0.09 | 80 | 1018.6 |
| 20260507050037 | 35 | 13 | 6.0 | 9.0 | 0.00 | 0.10 | 0.09 | 81 | 1018.4 |
| 20260507044528 | 35 | 19 | 4.0 | 6.0 | 0.00 | 0.10 | 0.09 | 82 | 1018.3 |
| 20260507043026 | 36 | 60 | 3.0 | 4.0 | 0.00 | 0.10 | 0.09 | 84 | 1018.0 |
| 20260507041539 | 36 | 97 | 4.0 | 6.0 | 0.00 | 0.10 | 0.09 | 87 | 1017.7 |
| 20260507040022 | 35 | 59 | 3.0 | 5.0 | 0.00 | 0.10 | 0.09 | 85 | 1017.4 |
| 20260507034519 | 36 | 76 | 0.0 | 0.0 | 0.00 | 0.10 | 0.09 | 85 | 1017.3 |
| 20260507033017 | 36 | 95 | 1.0 | 3.0 | 0.00 | 0.10 | 0.09 | 84 | 1017.0 |
| 20260507031514 | 37 | 128 | 4.0 | 5.0 | 0.00 | 0.10 | 0.09 | 83 | 1016.7 |
| 20260507030013 | 37 | 199 | 4.0 | 5.0 | 0.00 | 0.10 | 0.09 | 83 | 1016.3 |
| 20260507024512 | 38 | 233 | 6.0 | 9.0 | 0.00 | 0.10 | 0.09 | 80 | 1016.0 |